Regional Weather Roundup
Issued by NWS

Home | Current Version | Previous Version | Graphics & Text | Print | Product List | Glossary On
Versions: 1 2 3 4 5 6 7 8 9 10 11 12 13 14 15 16 17 18 19 20 21 22 23 24 25 26 27 28 29 30 31 32 33 34 35 36 37 38 39 40 41 42 43 44 45 46 47 48 49 50
000
ASUS43 KLOT 251512
RWRIL

ILLINOIS REGIONAL WEATHER ROUNDUP
NATIONAL WEATHER SERVICE CHICAGO/ROMEOVILLE IL
1000 AM CDT SAT APR 25 2015

NOTE: "FAIR" INDICATES FEW OR NO CLOUDS BELOW 12,000 FEET WITH NO
SIGNIFICANT WEATHER AND/OR OBSTRUCTIONS TO VISIBILITY.

* THESE STATIONS ARE NOT UNDER NWS QUALITY CONTROL. THEY ALSO MAY NOT
  REPORT WEATHER SUCH AS PRECIPITATION OR FOG.

ILZ001-002-007-009-015-016-024-251600-
NORTHWEST ILLINOIS

CITY           SKY/WX    TMP DP  RH WIND       PRES   REMARKS
MOLINE         CLOUDY    45  42  89 E14       29.68R FOG
STERLING*      CLOUDY    43  39  87 E23       29.71S
SAVANNA*       DRIZZLE   44  40  85 E12       29.74R
$$

ILZ003-004-008-010-011-017-018-251600-
NORTH CENTRAL ILLINOIS

CITY           SKY/WX    TMP DP  RH WIND       PRES   REMARKS
ROCKFORD       LGT RAIN  45  37  73 E12G24    29.79R
FREEPORT*      CLOUDY    44  38  79 E17G23    29.76F
ROCHELLE*      RAIN      42  41  95 E15G21    29.73F
DE KALB*       DRIZZLE   41  39  93 E14       29.76S
PERU*          RAIN      45  43  95 E20       29.70F
$$

ILZ005-006-012>014-019>023-251600-
NORTHEAST ILLINOIS

CITY           SKY/WX    TMP DP  RH WIND       PRES   REMARKS
CHICAGO-OHARE  LGT RAIN  43  39  86 E15       29.76F
CHICAGO-MIDWAY LGT RAIN  45  41  86 E14       29.76F
AURORA         LGT RAIN  45  40  82 NE12      29.74S
LANSING*       LGT RAIN  43  39  86 E13       29.76S
JOLIET*        LGT RAIN  45  43  93 E9        29.74R
WAUKEGAN       CLOUDY    41  38  89 NE15      29.81S
DUPAGE AIRPORT LGT RAIN  44  40  85 E14G21    29.75S FOG
KANKAKEE*      LGT RAIN  43  42  97 E22       29.71F
WHEELING       CLOUDY    43  37  79 NE12      29.79F
MORRIS*        LGT RAIN  45  42  91 E13       29.71R
ROMEOVILLE*    LGT RAIN  44  41  91 E13       29.74S
NORTHERLY ISL    N/A     43  39  86 E21         N/A
$$

LMZ740>746-251600-
SOUTHERN LAKE MICHIGAN

STATION/POSITION SKY/WX   TEMP    WIND        PRES    VSBY  WAVE
                          AIR SEA DIR/SP/G                  HT/PER
                          (F)     (DEG/KT/KT) (MB)    (MI)  (FT/S)
HARRISON CRIB              41      90/ 20/ 22   N/A
BURNHAM HARBOR             43      70/ 15/ 19   N/A
CALUMET HARBOR             44      90/ 14/ 19   N/A
BURNS HARBOR               43     110/ 14     1009.1F
MICHIGAN CITY              43     100/ 14/ 19   N/A
MICHIGAN CITY 6N           43 44  110/ 16/ 19   N/A           2/ 4
$$

ILZ025>027-034>036-040-047-049-050-058-095>099-251600-
WEST-CENTRAL ILLINOIS

CITY           SKY/WX    TMP DP  RH WIND       PRES   REMARKS
QUINCY         CLOUDY    51  49  92 E17       29.54F
GALESBURG*     HVY RAIN  46  44  93 E9        29.69R
MACOMB*        RAIN      47  47 100 NE21      29.61F
JACKSONVILLE*  CLOUDY    52  51  94 NE12      29.58S FOG
PITTSFIELD*    DRIZZLE   52  50  93 NE10G17   29.58R
$$

ILZ028>032-037-038-041>044-048-051>054-059>061-251600-
CENTRAL ILLINOIS

CITY           SKY/WX    TMP DP  RH WIND       PRES   REMARKS
PONTIAC        CLOUDY    46  46  97 E20G25    29.69R FOG
BLOOMINGTON    LGT RAIN  48  48 100 E15       29.66R FOG
DECATUR        LGT RAIN  51  49  92 SE14      29.60F FOG
PEORIA         HVY RAIN  48  45  89 E9        29.69R FOG
LACON*         RAIN      44  42  94 E10G24    29.67F
LINCOLN*       CLOUDY    51  48  91 NE5       29.64R
SPRINGFIELD    TSTM      51  49  92 N9        29.62R FOG
TAYLORVILLE    LGT RAIN  50  50 100 SE7       29.59R
$$

ILZ033-039-045-046-055>057-062-063-251600-
EAST-CENTRAL ILLINOIS

CITY           SKY/WX    TMP DP  RH WIND       PRES   REMARKS
CHAMPAIGN      LGT RAIN  50  48  93 E16       29.62F
DANVILLE*      LGT RAIN  47  46  96 E16G25    29.60F
RANTOUL*       LGT RAIN  51  49  93 E14       29.65S
MATTOON        LGT RAIN  50  48  93 SE14      29.59S FOG
PARIS*         CLOUDY    50  49  98 E9G16     29.63F FOG
$$

ILZ079-100>102-251600-
SOUTHWEST ILLINOIS

CITY           SKY/WX    TMP DP  RH WIND       PRES   REMARKS
ALTON          CLOUDY    57  55  94 S10       29.56S FOG
BELLEVILLE     CLOUDY    57  57 100 S3        29.55S
CAHOKIA*       CLOUDY    58  57  97 S5        29.55F FOG
SPARTA*        CLOUDY    59  57  94 S5        29.58R
$$

ILZ064>066-069>071-074>076-080>082-084>086-088>090-092>094-251600-
SOUTH-CENTRAL ILLINOIS

CITY           SKY/WX    TMP DP  RH WIND       PRES   REMARKS
CARBONDALE     CLOUDY    61  58  90 S12       29.57F
CAIRO*         CLOUDY    60  60  99 S8        29.60F FOG
EFFINGHAM*     FOG       52  50  93 E9        29.61S VSB 3/4
MT. VERNON     CLOUDY    57  54  88 S7        29.60S
CENTRALIA*     CLOUDY    58  54  85 S14       29.57S
SALEM*         CLOUDY    57  54  89 S8        29.58S FOG
METROPOLIS*    CLOUDY    63  62  96 S7        29.61F
$$

ILZ067-068-072-073-078-083-087-091-251600-
SOUTHEAST ILLINOIS

CITY           SKY/WX    TMP DP  RH WIND       PRES   REMARKS
LAWRENCEVILLE  CLOUDY    52  51  97 E10       29.62F FOG
FLORA*         CLOUDY    53  53  98 SE9       29.59F FOG
FAIRFIELD*     CLOUDY    56  55  95 SE9       29.57F
HARRISBURG*    CLOUDY    60  59  96 S7        29.61F
ROBINSON*      LGT RAIN  51  49  95 SE12      29.64F
CARMI*         CLOUDY    57  53  86 SE10      29.60F HAZE
$$

ABBREVIATIONS USED IN REMARKS
   TC - TEMPERATURE IN CELSIUS
  WCI - WIND CHILL INDEX
   HX - HEAT INDEX
  VSB - VISIBILITY
$$



USA.gov is the U.S. government's official web portal to all federal, state and local government web resources and services.